Location: Unspecified
(0.0000°N, 0.0000°E)
Time: 16:36:34
(UTC+00:00)

COSMO-SKYMED 1 - Visible Passes

Search period start: 30 March 2017 00:00
Search period end: 09 April 2017 00:00
Orbit: 621 x 623 km, 97.9° (Epoch: 28 March)

Date Brightness Start Highest point End Pass type
(mag) Time Alt. Az. Time Alt. Az. Time Alt. Az.
31 Mar 5.9 04:45:18 10° ESE 04:47:20 13° ENE 04:49:22 10° NE visible
31 Mar 5.7 18:29:06 10° NNW 18:32:09 19° WNW 18:35:13 10° WSW visible
01 Apr 5.2 05:01:51 10° SE 05:05:19 23° ENE 05:08:46 10° NNE visible
01 Apr 6.5 18:49:30 10° WNW 18:50:08 10° WNW 18:50:45 10° W visible
02 Apr 4.0 05:19:12 10° SSE 05:23:18 42° ENE 05:27:23 10° N visible
03 Apr 2.8 05:36:57 10° SSE 05:41:18 79° ENE 05:45:36 10° N visible
05 Apr 6.2 04:40:26 10° E 04:41:23 11° ENE 04:42:21 10° ENE visible
05 Apr 5.6 18:22:49 10° NNW 18:26:12 23° WNW 18:29:37 10° SW visible
06 Apr 5.5 04:56:15 10° SE 04:59:22 19° ENE 05:02:28 10° NNE visible
06 Apr 6.2 18:42:17 10° NW 18:44:12 13° WNW 18:46:07 10° WSW visible
07 Apr 4.5 05:13:26 10° SE 05:17:22 34° ENE 05:21:18 10° NNE visible
08 Apr 3.1 05:31:04 10° SSE 05:35:22 64° ENE 05:39:39 10° N visible
